BAW399X LFPG-EGLL

Flight info

Callsign BAW399X
Flight time N/A
Altitude 24000
Route OPALE DCT KESAX DCT DIMAL DCT ALESO
Aircraft A320/M-SDE3FGHIRWY/LB1

Departure

Time 2026-05-06 10:28
Airport Charles de Gaulle International Airport (LFPG)

Arrival

Time N/A
Airport London Heathrow Airport (EGLL)
Time Latitude Longitude Altitude Speed Heading
2026-05-06 10:12 49.00205 2.58415 354 ft 0 kts 85°
2026-05-06 10:19 49.00203 2.58380 363 ft 4 kts 86°
2026-05-06 10:19 49.00202 2.58352 361 ft 1 kts 110°
2026-05-06 10:19 49.00207 2.58340 363 ft 2 kts 162°
2026-05-06 10:20 49.00223 2.58336 362 ft 0 kts 176°
2026-05-06 10:20 49.00199 2.58339 360 ft 3 kts 175°
2026-05-06 10:20 49.00186 2.58341 360 ft 2 kts 175°
2026-05-06 10:20 49.00177 2.58342 357 ft 0 kts 175°
2026-05-06 10:23 49.00168 2.58343 354 ft 4 kts 175°
2026-05-06 10:23 49.00121 2.58347 356 ft 9 kts 184°
2026-05-06 10:23 49.00050 2.58328 357 ft 11 kts 171°
2026-05-06 10:23 49.00019 2.58415 356 ft 11 kts 84°
2026-05-06 10:24 49.00025 2.58555 354 ft 14 kts 86°
2026-05-06 10:24 49.00035 2.58719 354 ft 17 kts 84°
2026-05-06 10:24 49.00044 2.58907 354 ft 19 kts 85°
2026-05-06 10:24 49.00057 2.59119 354 ft 21 kts 84°
2026-05-06 10:25 49.00068 2.59313 359 ft 16 kts 85°
2026-05-06 10:25 49.00077 2.59494 356 ft 18 kts 85°
2026-05-06 10:25 49.00086 2.59697 360 ft 20 kts 85°
2026-05-06 10:25 49.00098 2.59927 354 ft 23 kts 85°
2026-05-06 10:26 49.00109 2.60146 354 ft 17 kts 95°
2026-05-06 10:26 49.00027 2.60233 358 ft 16 kts 174°
2026-05-06 10:26 48.99912 2.60224 360 ft 17 kts 204°
2026-05-06 10:26 48.99827 2.60104 354 ft 17 kts 251°
2026-05-06 10:27 48.99823 2.60064 354 ft 2 kts 266°
2026-05-06 10:27 48.99811 2.59793 357 ft 58 kts 265°
2026-05-06 10:27 48.99760 2.58873 359 ft 114 kts 266°
2026-05-06 10:27 48.99691 2.57474 385 ft 143 kts 275°
2026-05-06 10:28 48.99631 2.55963 770 ft 152 kts 271°
2026-05-06 10:28 48.99550 2.54274 1457 ft 163 kts 270°
2026-05-06 10:28 48.99483 2.52526 1941 ft 171 kts 271°
2026-05-06 10:28 48.99412 2.50663 2316 ft 182 kts 271°
2026-05-06 10:29 48.99316 2.48673 2706 ft 195 kts 269°
2026-05-06 10:29 48.99179 2.46535 3159 ft 210 kts 268°
2026-05-06 10:29 48.99035 2.44226 3546 ft 231 kts 268°
2026-05-06 10:29 48.98884 2.41628 3824 ft 261 kts 268°
2026-05-06 10:30 48.98724 2.38725 4185 ft 289 kts 268°
2026-05-06 10:30 48.98537 2.35526 4620 ft 309 kts 267°
2026-05-06 10:30 48.98344 2.32353 5956 ft 291 kts 267°
2026-05-06 10:30 48.98159 2.29342 7144 ft 284 kts 267°
2026-05-06 10:31 48.97980 2.26337 8004 ft 287 kts 266°
2026-05-06 10:31 48.97934 2.23291 8788 ft 289 kts 282°
2026-05-06 10:31 48.98650 2.20469 9609 ft 289 kts 306°
2026-05-06 10:31 49.00112 2.18380 10271 ft 292 kts 332°
2026-05-06 10:32 49.02056 2.17430 10691 ft 301 kts 358°
2026-05-06 10:32 49.04202 2.17317 11029 ft 316 kts
2026-05-06 10:32 49.06427 2.17232 11306 ft 332 kts 360°
2026-05-06 10:32 49.08793 2.17132 11573 ft 348 kts 359°
2026-05-06 10:33 49.11246 2.17017 12101 ft 355 kts 359°
2026-05-06 10:33 49.13724 2.16890 12756 ft 358 kts 359°
2026-05-06 10:33 49.16221 2.16755 13403 ft 361 kts 359°
2026-05-06 10:33 49.18748 2.16619 14046 ft 365 kts 359°
2026-05-06 10:34 49.21298 2.16484 14629 ft 369 kts 359°
2026-05-06 10:34 49.23879 2.16350 15159 ft 373 kts 359°
2026-05-06 10:34 49.26483 2.16217 15666 ft 377 kts 358°
2026-05-06 10:34 49.29121 2.16083 16177 ft 381 kts 359°
2026-05-06 10:35 49.31784 2.15949 16685 ft 385 kts 359°
2026-05-06 10:35 49.34482 2.15810 17209 ft 390 kts 358°
2026-05-06 10:35 49.37204 2.15668 17735 ft 394 kts 358°
2026-05-06 10:35 49.39957 2.15518 18264 ft 398 kts 358°
2026-05-06 10:36 49.42732 2.15234 18739 ft 402 kts 352°
2026-05-06 10:36 49.45469 2.14269 19297 ft 406 kts 342°
2026-05-06 10:36 49.48127 2.12756 19901 ft 409 kts 340°
2026-05-06 10:36 49.50799 2.11208 20420 ft 413 kts 340°
2026-05-06 10:37 49.53504 2.09645 20917 ft 416 kts 340°
2026-05-06 10:37 49.56222 2.08079 21384 ft 419 kts 340°
2026-05-06 10:37 49.58965 2.06505 21838 ft 422 kts 340°
2026-05-06 10:37 49.61724 2.04921 22277 ft 425 kts 340°